Corpus Christi NAS, TX

4:19 PM CDT on March 26, 2017 (GMT -0500)
Corpus Christi Naval Air Station-Truax

Weather History for KNGP - February, 2013

Change the Weather History Date:

Tuesday, February 19, 2013

  Actual Average Record
Temperature  
Mean Temperature 66 °F -  
Max Temperature 70 °F 67 °F 78 °F (2016)
Min Temperature 63 °F 53 °F 37 °F (2006)
Cooling Degree Days 2    
Growing Degree Days 16 (Base 50)    
Moisture  
Dew Point 53 °F    
Average Humidity 63    
Maximum Humidity 90    
Minimum Humidity 50    
Precipitation  
Precipitation 0.00 in - - ()
Sea Level Pressure  
Sea Level Pressure 30.11 in    
Wind  
Wind Speed 15 mph (ENE)    
Max Wind Speed 26 mph    
Max Gust Speed 34 mph    
Visibility 10 miles    
Events      
Averages and records for this station are not official NWS values.
T = Trace of Precipitation, MM = Missing Value Source: NWS Daily Summary

Daily Weather History Graph

Daily Weather History Graph

Search for Another Location

Airport or City:

Trip Planner

Search our weather history database for the weather conditions in past years. The results will help you decide how hot, cold, wet, or windy it might be!

Date:

Astronomy

Feb. 19, 2013 Rise Set
Actual Time 7:02 AM CST 6:23 PM CST
Civil Twilight 6:39 AM CST 6:47 PM CST
Nautical Twilight 6:11 AM CST 7:14 PM CST
Astronomical Twilight 5:44 AM CST 7:41 PM CST
Moon 1:11 PM CST (2/19) 2:20 AM CST (2/19)
Length of Visible Light 12h 08m
Length of Day
11h 20m
Waxing Gibbous, 67% of the Moon is Illuminated
Feb 19
Waxing Gibbous
Feb 25
Full
Mar 4
Last Quarter
Mar 11
New
Mar 19
First Quarter

Hourly Weather History & Observations

Time (CST) Temp. Dew Point Humidity Pressure Visibility Wind Dir Wind Speed Gust Speed Precip Events Conditions
12:56 AM 66.0 °F 63.0 °F 90% 30.00 in 7.0 mi South 5.8 mph - N/A   Clear
1:56 AM 64.9 °F 62.1 °F 90% 30.01 in 5.0 mi South 4.6 mph - N/A   Clear
2:56 AM 68.0 °F 63.0 °F 84% 30.05 in 9.0 mi North 13.8 mph - N/A   Mostly Cloudy
3:56 AM 64.9 °F 46.0 °F 50% 30.08 in 10.0 mi NE 24.2 mph 34.5 mph N/A   Overcast
4:25 AM 64.4 °F 46.4 °F 52% 30.08 in 10.0 mi NE 26.5 mph 32.2 mph N/A   Overcast
4:56 AM 64.9 °F 46.9 °F 52% 30.09 in 10.0 mi NE 19.6 mph 29.9 mph N/A   Overcast
5:56 AM 64.0 °F 46.0 °F 52% 30.11 in 10.0 mi NE 21.9 mph 27.6 mph N/A   Overcast
6:56 AM 63.0 °F 46.0 °F 54% 30.14 in 10.0 mi NE 18.4 mph 26.5 mph N/A   Mostly Cloudy
7:56 AM 64.0 °F 48.0 °F 56% 30.16 in 10.0 mi ENE 18.4 mph 26.5 mph N/A   Overcast
8:56 AM 64.9 °F 46.9 °F 52% 30.19 in 10.0 mi ENE 20.7 mph 28.8 mph N/A   Overcast
9:56 AM 64.9 °F 46.0 °F 50% 30.20 in 10.0 mi ENE 20.7 mph 28.8 mph N/A   Overcast
10:56 AM 66.0 °F 48.9 °F 54% 30.20 in 10.0 mi ENE 18.4 mph - N/A   Overcast
11:56 AM 66.0 °F 50.0 °F 56% 30.21 in 10.0 mi ENE 15.0 mph - N/A   Overcast
12:56 PM 66.9 °F 52.0 °F 59% 30.18 in 10.0 mi East 17.3 mph - N/A   Overcast
1:56 PM 70.0 °F 52.0 °F 53% 30.15 in 10.0 mi ENE 18.4 mph - N/A   Mostly Cloudy
2:56 PM 70.0 °F 53.1 °F 55% 30.13 in 10.0 mi ENE 18.4 mph - N/A   Mostly Cloudy
3:56 PM 69.1 °F 53.1 °F 57% 30.10 in 10.0 mi ENE 21.9 mph - N/A   Mostly Cloudy
4:56 PM 68.0 °F 55.0 °F 63% 30.10 in 10.0 mi East 17.3 mph - N/A   Mostly Cloudy
6:56 PM 66.0 °F 54.0 °F 65% 30.08 in 10.0 mi ENE 15.0 mph - N/A   Overcast
7:56 PM 66.0 °F 55.0 °F 68% 30.10 in 10.0 mi East 15.0 mph - N/A   Overcast
8:56 PM 64.9 °F 57.0 °F 75% 30.08 in 10.0 mi East 15.0 mph - N/A   Scattered Clouds
9:56 PM 64.9 °F 57.9 °F 78% 30.09 in 10.0 mi East 12.7 mph - N/A   Scattered Clouds
10:56 PM 64.9 °F 57.0 °F 75% 30.06 in 10.0 mi East 16.1 mph - N/A   Scattered Clouds
11:56 PM 64.9 °F 57.0 °F 75% 30.02 in 10.0 mi ESE 19.6 mph - N/A   Clear